Volver al catálogo

THOR ABLESTAR DEB

ActivoLEO
NORAD 133·DEBRIS·🇺🇸 United States

Lanzado Jun 29, 1961 desde Cape Canaveral Space Force Station

Loading…

Próximos Pases (próximas 24 horas)

TLE

ActualizadoSource: Space-Track

Época: Sep 14, 2026, 05:21 UTC

1 00133U 61015T   26257.22331571  .00000474  00000-0  24292-3 0  9993
2 00133  67.1165 353.2735 0044458  64.8613 295.7087 14.23141474346154

Sigue THOR ABLESTAR DEB en tiempo real con AllMySat

Download on the App Store